Location: Newark
(13.6797°N, 8.5297°E)
Time: 20:53:15
(UTC+00:00)

Courier 1B Rocket - Pass Details

Date: 27 January 2020
Orbit: 920 x 1202 km, 28.2° (Epoch: 22 February)

Event Time Altitude Azimuth Distance (km) Brightness Sun altitude
Rises 04:57:25 0° 203° (SSW) 4,057 8.2 -13.9°
Reaches altitude 10° 05:01:43 10° 182° (S) 3,118 7.8 -12.9°
Maximum altitude 05:05:56 15° 149° (SSE) 2,738 8.0 -11.9°
Drops below altitude 10° 05:10:09 10° 116° (ESE) 3,120 9.2 -10.9°
Sets 05:14:25 0° 95° (E) 4,063 10.1 -9.9°
